• In Netherlands
  • List of Countries
  • For 7 days
  • Water Temperature
  • Satellite Maps
  • Weather Map
  • Weather Widgets
  • user-avatar
    Login

    Hourly Weather Amstelveen

    Today, 26 May, Saturday

    Time Temperature Precipitation Wind Pressure Humidity
    00:00 +18°C° 0 mm 3 mps 764 mmHg 89%
    01:00 +18°C° 0 mm 3 mps 764 mmHg 90%
    02:00 +17°C° 0 mm 3 mps 764 mmHg 91%
    03:00 +17°C° 0 mm 3 mps 765 mmHg 92%
    04:00 +18°C° 0 mm 3 mps 765 mmHg 90%
    05:00 +19°C° 0 mm 4 mps 765 mmHg 88%
    06:00 +19°C° 0 mm 4 mps 765 mmHg 86%
    07:00 +21°C° 0 mm 4 mps 765 mmHg 79%
    08:00 +23°C° 0 mm 4 mps 765 mmHg 72%
    09:00 +25°C° 0 mm 4 mps 765 mmHg 65%
    10:00 +26°C° 0 mm 4 mps 766 mmHg 61%
    11:00 +27°C° 0 mm 5 mps 766 mmHg 57%
    12:00 +28°C° 0 mm 5 mps 766 mmHg 53%
    13:00 +28°C° 0 mm 5 mps 765 mmHg 53%
    14:00 +29°C° 0 mm 5 mps 765 mmHg 52%
    15:00 +29°C° 0 mm 5 mps 765 mmHg 52%
    16:00 +28°C° 0.1 mm 5 mps 765 mmHg 57%
    17:00 +27°C° 0.1 mm 5 mps 765 mmHg 61%
    18:00 +26°C° 0.1 mm 6 mps 765 mmHg 66%
    19:00 +24°C° 0 mm 6 mps 765 mmHg 69%
    20:00 +22°C° 0 mm 6 mps 765 mmHg 71%
    21:00 +21°C° 0 mm 6 mps 766 mmHg 74%
    22:00 +21°C° 0 mm 6 mps 766 mmHg 75%
    23:00 +20°C° 0 mm 6 mps 766 mmHg 77%

    Tomorrow, 27 May, Sunday

    Time Temperature Precipitation Wind Pressure Humidity
    00:00 +19°C° 0 mm 5 mps 766 mmHg 78%
    01:00 +19°C° 0 mm 5 mps 765 mmHg 80%
    02:00 +17°C° 0 mm 5 mps 765 mmHg 82%
    03:00 +17°C° 0 mm 5 mps 765 mmHg 83%
    04:00 +17°C° 0 mm 5 mps 765 mmHg 81%
    05:00 +19°C° 0 mm 5 mps 765 mmHg 80%
    06:00 +19°C° 0 mm 5 mps 765 mmHg 78%
    07:00 +21°C° 0 mm 6 mps 765 mmHg 73%
    08:00 +22°C° 0 mm 6 mps 764 mmHg 68%
    09:00 +24°C° 0 mm 6 mps 764 mmHg 63%
    10:00 +26°C° 0 mm 6 mps 764 mmHg 59%
    11:00 +27°C° 0 mm 6 mps 764 mmHg 56%
    12:00 +28°C° 0 mm 6 mps 763 mmHg 52%
    13:00 +28°C° 0.1 mm 5 mps 763 mmHg 52%
    14:00 +29°C° 0.1 mm 5 mps 763 mmHg 52%
    15:00 +29°C° 0.1 mm 5 mps 762 mmHg 52%
    16:00 +28°C° 0.4 mm 5 mps 762 mmHg 56%
    17:00 +27°C° 0.4 mm 4 mps 762 mmHg 61%
    18:00 +26°C° 0.4 mm 4 mps 762 mmHg 66%
    19:00 +25°C° 2.2 mm 4 mps 762 mmHg 72%
    20:00 +23°C° 2.2 mm 4 mps 762 mmHg 79%
    21:00 +21°C° 2.2 mm 3 mps 762 mmHg 85%
    22:00 +21°C° 1.4 mm 4 mps 762 mmHg 86%
    23:00 +20°C° 1.4 mm 4 mps 762 mmHg 88%

    Day after tomorrow, 28 May, Monday

    Time Temperature Precipitation Wind Pressure Humidity
    00:00 +20°C° 1.4 mm 4 mps 762 mmHg 89%
    01:00 +20°C° 0.4 mm 4 mps 762 mmHg 89%
    02:00 +19°C° 0.4 mm 4 mps 762 mmHg 89%
    03:00 +19°C° 0.4 mm 4 mps 762 mmHg 89%
    04:00 +20°C° 0.1 mm 4 mps 762 mmHg 88%
    05:00 +20°C° 0.1 mm 3 mps 762 mmHg 86%
    06:00 +21°C° 0.1 mm 3 mps 762 mmHg 85%
    07:00 +24°C° 0.1 mm 3 mps 763 mmHg 78%
    08:00 +25°C° 0.1 mm 2 mps 763 mmHg 71%
    09:00 +27°C° 0.1 mm 2 mps 763 mmHg 65%
    10:00 +28°C° 0 mm 2 mps 763 mmHg 59%
    11:00 +29°C° 0 mm 2 mps 763 mmHg 54%
    12:00 +31°C° 0 mm 3 mps 763 mmHg 48%
    13:00 +31°C° 0.1 mm 3 mps 763 mmHg 48%
    14:00 +31°C° 0.1 mm 3 mps 763 mmHg 47%
    15:00 +32°C° 0.1 mm 4 mps 763 mmHg 47%
    16:00 +30°C° 0.8 mm 4 mps 763 mmHg 53%
    17:00 +29°C° 0.8 mm 4 mps 763 mmHg 59%
    18:00 +27°C° 0.8 mm 5 mps 763 mmHg 65%
    19:00 +26°C° 0.5 mm 5 mps 763 mmHg 71%
    20:00 +23°C° 0.5 mm 5 mps 763 mmHg 78%
    21:00 +22°C° 0.5 mm 5 mps 763 mmHg 85%
    22:00 +21°C° 0.8 mm 4 mps 763 mmHg 87%
    23:00 +21°C° 0.8 mm 4 mps 763 mmHg 88%

    29 May, Tuesday

    Time Temperature Precipitation Wind Pressure Humidity
    00:00 +21°C° 0.8 mm 3 mps 763 mmHg 90%
    01:00 +20°C° 0.3 mm 3 mps 763 mmHg 91%
    02:00 +20°C° 0.3 mm 3 mps 763 mmHg 91%
    03:00 +20°C° 0.3 mm 4 mps 763 mmHg 92%
    04:00 +20°C° 0 mm 4 mps 762 mmHg 91%
    05:00 +21°C° 0 mm 4 mps 762 mmHg 89%
    06:00 +21°C° 0 mm 4 mps 762 mmHg 87%
    07:00 +23°C° 0 mm 4 mps 762 mmHg 82%
    08:00 +25°C° 0 mm 4 mps 762 mmHg 76%
    09:00 +27°C° 0 mm 4 mps 762 mmHg 71%
    10:00 +28°C° 0.1 mm 4 mps 762 mmHg 67%
    11:00 +29°C° 0.1 mm 4 mps 761 mmHg 62%
    12:00 +30°C° 0.1 mm 4 mps 761 mmHg 58%
    13:00 +30°C° 0.2 mm 4 mps 761 mmHg 59%
    14:00 +30°C° 0.2 mm 5 mps 760 mmHg 59%
    15:00 +30°C° 0.2 mm 5 mps 760 mmHg 60%
    16:00 +28°C° 0.9 mm 5 mps 760 mmHg 66%
    17:00 +27°C° 0.9 mm 5 mps 759 mmHg 72%
    18:00 +26°C° 0.9 mm 5 mps 759 mmHg 78%
    19:00 +25°C° 0.6 mm 4 mps 759 mmHg 80%
    20:00 +23°C° 0.6 mm 4 mps 759 mmHg 82%
    21:00 +22°C° 0.6 mm 4 mps 759 mmHg 84%
    22:00 +22°C° 0.4 mm 4 mps 759 mmHg 86%
    23:00 +21°C° 0.4 mm 3 mps 759 mmHg 87%

    30 May, Wednesday

    Time Temperature Precipitation Wind Pressure Humidity
    00:00 +21°C° 0.4 mm 3 mps 758 mmHg 88%
    01:00 +21°C° 0.1 mm 3 mps 758 mmHg 90%
    02:00 +20°C° 0.1 mm 3 mps 758 mmHg 91%
    03:00 +20°C° 0.1 mm 3 mps 757 mmHg 92%
    04:00 +20°C° 0.8 mm 4 mps 757 mmHg 92%
    05:00 +20°C° 0.8 mm 4 mps 757 mmHg 91%
    06:00 +20°C° 0.8 mm 4 mps 757 mmHg 91%
    07:00 +20°C° 0.7 mm 4 mps 757 mmHg 90%
    08:00 +21°C° 0.7 mm 3 mps 757 mmHg 90%
    09:00 +21°C° 0.7 mm 3 mps 757 mmHg 89%
    10:00 +21°C° 0.3 mm 3 mps 757 mmHg 87%
    11:00 +22°C° 0.3 mm 3 mps 757 mmHg 86%
    12:00 +23°C° 0.3 mm 2 mps 757 mmHg 84%
    13:00 +24°C° 0.5 mm 3 mps 757 mmHg 81%
    14:00 +25°C° 0.5 mm 3 mps 757 mmHg 78%
    15:00 +25°C° 0.5 mm 3 mps 757 mmHg 75%
    16:00 +25°C° 0.3 mm 3 mps 757 mmHg 77%
    17:00 +25°C° 0.3 mm 3 mps 757 mmHg 78%
    18:00 +24°C° 0.3 mm 3 mps 757 mmHg 80%
    19:00 +23°C° 0 mm 2 mps 757 mmHg 83%
    20:00 +21°C° 0 mm 2 mps 757 mmHg 86%
    21:00 +21°C° 0 mm 1 mps 757 mmHg 89%
    22:00 +20°C° 0 mm 1 mps 757 mmHg 90%
    23:00 +20°C° 0 mm 1 mps 757 mmHg 90%

    31 May, Thursday

    Time Temperature Precipitation Wind Pressure Humidity
    00:00 +20°C° 0 mm 1 mps 757 mmHg 91%
    01:00 +19°C° 0 mm 1 mps 758 mmHg 91%
    02:00 +19°C° 0 mm 1 mps 758 mmHg 91%
    03:00 +18°C° 0 mm 1 mps 758 mmHg 92%
    04:00 +19°C° 0 mm 1 mps 758 mmHg 89%
    05:00 +20°C° 0 mm 1 mps 758 mmHg 87%
    06:00 +20°C° 0 mm 2 mps 759 mmHg 84%
    07:00 +21°C° 0 mm 2 mps 759 mmHg 78%
    08:00 +23°C° 0 mm 2 mps 759 mmHg 72%
    09:00 +25°C° 0 mm 2 mps 759 mmHg 66%
    10:00 +26°C° 0 mm 3 mps 759 mmHg 63%
    11:00 +26°C° 0 mm 3 mps 759 mmHg 60%
    12:00 +27°C° 0 mm 3 mps 760 mmHg 57%
    13:00 +27°C° 0 mm 3 mps 760 mmHg 58%
    14:00 +27°C° 0 mm 3 mps 760 mmHg 59%
    15:00 +27°C° 0 mm 3 mps 760 mmHg 60%
    16:00 +25°C° 0 mm 3 mps 760 mmHg 64%
    17:00 +24°C° 0 mm 3 mps 760 mmHg 68%
    18:00 +22°C° 0 mm 3 mps 760 mmHg 71%
    19:00 +21°C° 0 mm 3 mps 760 mmHg 74%
    20:00 +20°C° 0 mm 2 mps 761 mmHg 77%
    21:00 +19°C° 0 mm 2 mps 761 mmHg 80%
    22:00 +18°C° 0 mm 3 mps 761 mmHg 82%
    23:00 +18°C° 0 mm 3 mps 761 mmHg 84%
    Show more